Overview Statistics Trail Chart Weather Telemetry Raw packets
 

This is the latest recevied weather packets stored in our database for station/object AA7VG. If no packets are shown the sender has not sent any weather packets the latest 10 day(s).

<< 104 105 106 107 108 109 110 >>
Time Temp. Humidity Pressure Rain* Wind** Luminosity Snow
1787828019 12.22° C 77% 1020.1 hPa 0 mm - - -
1787827714 12.22° C 76% 1020 hPa 0 mm - - -
1787827410 12.78° C 76% 1020.4 hPa 0 mm - - -
1787827109 12.78° C 75% 1019.9 hPa 0 mm - - -
1787826808 12.78° C 75% 1020 hPa 0 mm - - -
1787826505 12.78° C 74% 1020 hPa 0 mm - - -
1787826200 13.33° C 73% 1020 hPa 0 mm - - -
1787825899 13.33° C 72% 1019.9 hPa 0 mm - - -
1787825595 13.33° C 71% 1020.1 hPa 0 mm - - -
1787825289 13.33° C 70% 1020.1 hPa 0 mm - - -
1787824986 13.89° C 69% 1019.7 hPa 0 mm - - -
1787824684 13.89° C 69% 1019.9 hPa 0 mm - - -
1787824379 13.89° C 68% 1020 hPa 0 mm - - -
1787824075 13.89° C 67% 1020.1 hPa 0 mm - - -
1787823770 13.89° C 68% 1020 hPa 0 mm - - -
1787823470 13.89° C 69% 1019.7 hPa 0 mm - - -
1787823165 13.33° C 69% 1019.6 hPa 0 mm - - -
1787822858 13.33° C 69% 1020 hPa 0 mm - - -
1787822558 13.89° C 68% 1020 hPa 0 mm - - -
1787822253 14.44° C 66% 1019.7 hPa 0 mm - - -
1787821951 14.44° C 65% 1019.7 hPa 0 mm - - -
1787821647 15° C 63% 1019.9 hPa 0 mm - - -
1787821343 15.56° C 62% 1020 hPa 0 mm - - -
1787821041 15.56° C 61% 1020 hPa 0 mm - - -
1787820741 15.56° C 61% 1020.1 hPa 0 mm - - -

* Rain latest hour (hover to see other rain measurements)
** Current wind speed in m/s (hover to see current wind gust speed)